Location: ????????
(56.1167°N, 38.6333°E)
Time: 21:21:38
(UTC+00:00)

Terra - Pass Details

Date: 18 November 2025
Orbit: 687 x 692 km, 98.0° (Epoch: 06 December)

Event Time Altitude Azimuth Distance (km) Brightness Sun altitude
Exits shadow 16:42:54 11° 1° (N) 2,101 4.3 -28.8°
Drops below altitude 10° 16:43:05 10° 360° (N) 2,165 4.4 -28.8°
Sets 16:45:32 0° 350° (N) 3,079 5.4 -29.1°
